Regional Weather Roundup
Issued by NWS Kansas City/Pleasant Hill, MO

Home | Current Version | Previous Version | Text Only | Print | Product List | Glossary On
Versions: 1 2 3 4 5 6 7 8 9 10 11 12 13 14 15 16 17 18 19 20 21 22 23 24 25 26 27 28 29 30 31 32 33 34 35 36 37 38 39 40 41 42 43 44 45 46 47 48 49 50
000
ASUS43 KEAX 300010
RWREAX

WEATHER ROUNDUP FOR EASTERN KANSAS AND NORTHWEST MISSOURI
NATIONAL WEATHER SERVICE KANSAS CITY/PLEASANT HILL MO
700 PM CDT SUN MAR 29 2015

KSZ040-057-103>105-MOZ028-029-037-043-300100-
...KANSAS CITY METROPOLITAN AREA...

CITY           SKY/WX    TMP DP  RH WIND       PRES   REMARKS
K.C. INTL      PTCLDY    58  38  47 NW15G23   30.06R
6HR MIN TEMP:  58; 6HR MAX TEMP:  68;

K.C. DOWNTOWN  LGT RAIN  62  39  42 N15G24    30.05R
6HR MIN TEMP:  60; 6HR MAX TEMP:  71; 6HR PCP: TRACE;

LEES SUMMIT    CLEAR     61  41  47 N21       30.04R
6HR MIN TEMP:  55; 6HR MAX TEMP:  68;

OLATHE - IXD   CLEAR     60  40  47 N22G28    30.07R
6HR MIN TEMP:  57; 6HR MAX TEMP:  69;

OLATHE - OJC   CLEAR     61  40  45 N17G25    30.04R
6HR MIN TEMP:  56; 6HR MAX TEMP:  69;

LAWRENCE       CLEAR     61  39  44 N16       30.07R

$$

MOZ001>008-011>017-020>025-030>033-038>040-044>046-053-054-300100-
...NORTHERN AND CENTRAL MISSOURI...

CITY           SKY/WX    TMP DP  RH WIND       PRES   REMARKS
ST. JOSEPH     CLEAR     60  35  39 N14       30.06R
6HR MIN TEMP:  60; 6HR MAX TEMP:  68;

MOSBY          CLEAR     59  37  44 NW14G22   30.05R
WARRENSBURG    CLEAR     63  39  42 NW12G18   30.01R
WHITEMAN AFB   PTCLDY    64  41  44 NW16      29.99R
6HR MIN TEMP:  50; 6HR MAX TEMP:  66;

CLINTON        PTCLDY    63  45  51 SW3       30.01R
SEDALIA        PTCLDY    61  43  51 W7        30.00R
6HR MIN TEMP:  52; 6HR MAX TEMP:  62;

WARSAW         NOT AVBL
MARSHALL       CLEAR     63  45  51 NW14G20   30.01R
CHILLICOTHE      N/A     59  39  47 NW9G20    30.04R
6HR MIN TEMP:  56; 6HR MAX TEMP:  68;

MOBERLY        PTCLDY    61  39  44 NW20      29.98R
KIRKSVILLE     CLEAR     57  38  48 NW13G20   30.00R
6HR MIN TEMP:  51; 6HR MAX TEMP:  64; 6HR PCP: TRACE;


$$

MOZ041-047>049-056>058-063>065-088>090-097-300100-
...EASTERN AND SOUTHERN MISSOURI...

CITY           SKY/WX    TMP DP  RH WIND       PRES   REMARKS
ST. LOUIS INTL MOCLDY    57  40  52 W12       29.98R
6HR MIN TEMP:  55; 6HR MAX TEMP:  61; 6HR PCP:  0.02;

SPIRIT OF STL  MOCLDY    57  39  51 W12G22    29.97R
COLUMBIA       PTCLDY    56  42  59 SW8       29.98R
JEFFERSON CITY MOCLDY    59  41  51 SW3       29.98R
MEXICO         PTCLDY    59  46  63 SW10      29.96R
HANNIBAL       MOCLDY    61  39  44 W10G17    29.95R
ROLLA          MOCLDY    55  40  56 SW8       29.98S
LEBANON        CLOUDY    55  41  58 W6        30.04R
OSAGE BEACH    MOCLDY    59  37  44 W3        30.01R
SPRINGFIELD    MOCLDY    57  43  59 W5        30.04R
BRANSON        CLOUDY    61  45  55 N14       30.03R
NEVADA         MOCLDY    59  45  58 SW5       30.05R
JOPLIN         CLOUDY    59  42  53 SW6       30.06R
WEST PLAINS    CLOUDY    59  42  53 W3        30.03R

$$

IAZ060-094-KSZ022-034>040-054-083-096-NEZ052-066-093-300100-
...KANSAS...SOUTHEAST NEBRASKA AND IOWA...

CITY           SKY/WX    TMP DP  RH WIND       PRES   REMARKS
TOPEKA         CLEAR     62  39  42 NW13G22   30.08R
6HR MIN TEMP:  62; 6HR MAX TEMP:  71;

EMPORIA        CLEAR     66  35  31 N17G24    30.07R
CHANUTE        PTCLDY    69  39  33 N15       30.04R
WICHITA        CLEAR     70  29  21 N18       30.08R
OMAHA          PTCLDY    60  22  23 NW17      30.05R
LINCOLN        CLEAR     62  21  20 N14       30.09R
FALLS CITY     CLEAR     60  29  30 NW12      30.07R
LAMONI         CLEAR     57  34  41 NW17G26   30.01R
DES MOINES     CLEAR     60  19  20 NW17G26   29.98R

$$




USA.gov is the U.S. government's official web portal to all federal, state and local government web resources and services.